Location: Jelenia Góra
(50.8952°N, 15.7353°E)
Time: 16:43:14
(UTC+01:00)

ISS - Visible Passes

Search period start: 20 November 2017 00:00
Search period end: 30 November 2017 00:00
Orbit: 402 x 407 km, 51.6° (Epoch: 21 November)

Date Brightness Start Highest point End Pass type
(mag) Time Alt. Az. Time Alt. Az. Time Alt. Az.
28 Nov -1.5 18:16:25 10° SSW 18:17:35 17° S 18:17:35 17° S visible
29 Nov -1.7 17:24:59 10° S 17:26:50 14° SE 17:27:28 14° SE visible
29 Nov -0.8 18:59:34 10° SW 19:00:07 14° SW 19:00:07 14° SW visible
